| time (UTC) | temp F | wind direction | speed MPH | gust MPH | rain 1hr in | rain 24hr in | rain mn in | humidity % | barometer mb |
| 20260901161117 | 71 | 145 | 0.0 | 1.0 | 0.00 | 0.00 | 0.00 | 52 | 1019.3 |
| 20260901160625 | 70 | 198 | 0.0 | 1.0 | 0.00 | 0.00 | 0.00 | 52 | 1019.3 |
| 20260901160127 | 69 | 278 | 0.0 | 2.0 | 0.00 | 0.00 | 0.00 | 54 | 1019.3 |
| 20260901155633 | 69 | 278 | 1.0 | 2.0 | 0.00 | 0.00 | 0.00 | 54 | 1019.3 |
| 20260901155114 | 68 | 277 | 0.0 | 1.0 | 0.00 | 0.00 | 0.00 | 56 | 1019.3 |
| 20260901154615 | 67 | 100 | 0.0 | 1.0 | 0.00 | 0.00 | 0.00 | 57 | 1019.4 |
| 20260901154144 | 67 | 100 | 0.0 | 1.0 | 0.00 | 0.00 | 0.00 | 58 | 1019.3 |
| 20260901153625 | 67 | 101 | 0.0 | 1.0 | 0.00 | 0.00 | 0.00 | 57 | 1019.4 |
| 20260901153134 | 67 | 101 | 0.0 | 1.0 | 0.00 | 0.00 | 0.00 | 55 | 1019.4 |
| 20260901152617 | 67 | 101 | 0.0 | 1.0 | 0.00 | 0.00 | 0.00 | 54 | 1019.4 |
| 20260901152118 | 67 | 101 | 0.0 | 1.0 | 0.00 | 0.00 | 0.00 | 54 | 1019.5 |
| 20260901151626 | 67 | 212 | 0.0 | 1.0 | 0.00 | 0.00 | 0.00 | 56 | 1019.4 |
| 20260901151127 | 66 | 146 | 0.0 | 1.0 | 0.00 | 0.00 | 0.00 | 60 | 1019.4 |
| 20260901150629 | 64 | 118 | 0.0 | 2.0 | 0.00 | 0.00 | 0.00 | 62 | 1019.5 |
| 20260901150136 | 64 | 124 | 1.0 | 2.0 | 0.00 | 0.00 | 0.00 | 63 | 1019.5 |
| 20260901145618 | 63 | 150 | 0.0 | 1.0 | 0.00 | 0.00 | 0.00 | 64 | 1019.5 |
| 20260901145147 | 63 | 143 | 0.0 | 1.0 | 0.00 | 0.00 | 0.00 | 64 | 1019.6 |
| 20260901144629 | 62 | 129 | 0.0 | 1.0 | 0.00 | 0.00 | 0.00 | 66 | 1019.5 |
| 20260901144157 | 62 | 136 | 0.0 | 2.0 | 0.00 | 0.00 | 0.00 | 65 | 1019.5 |
| 20260901143617 | 62 | 127 | 0.0 | 2.0 | 0.00 | 0.00 | 0.00 | 65 | 1019.4 |
| 20260901143145 | 62 | 137 | 0.0 | 1.0 | 0.00 | 0.00 | 0.00 | 67 | 1019.3 |
| 20260901142626 | 61 | 137 | 0.0 | 1.0 | 0.00 | 0.00 | 0.00 | 70 | 1019.4 |
| 20260901142127 | 60 | 134 | 0.0 | 1.0 | 0.00 | 0.00 | 0.00 | 71 | 1019.3 |
| 20260901141615 | 60 | 108 | 1.0 | 1.0 | 0.00 | 0.00 | 0.00 | 72 | 1019.2 |
| 20260901141116 | 59 | 71 | 0.0 | 1.0 | 0.00 | 0.00 | 0.00 | 71 | 1019.2 |
| 20260901140624 | 59 | 71 | 1.0 | 1.0 | 0.00 | 0.00 | 0.00 | 72 | 1019.2 |
| 20260901140125 | 59 | 71 | 0.0 | 1.0 | 0.00 | 0.00 | 0.00 | 72 | 1019.2 |
| 20260901135634 | 59 | 68 | 0.0 | 1.0 | 0.00 | 0.00 | 0.00 | 72 | 1019.2 |
| 20260901135114 | 59 | 68 | 0.0 | 1.0 | 0.00 | 0.00 | 0.00 | 72 | 1019.2 |
| 20260901134635 | 58 | 68 | 0.0 | 1.0 | 0.00 | 0.00 | 0.00 | 73 | 1019.2 |
| 20260901134123 | 58 | 316 | 0.0 | 1.0 | 0.00 | 0.00 | 0.00 | 73 | 1019.2 |
| 20260901133625 | 58 | 69 | 0.0 | 1.0 | 0.00 | 0.00 | 0.00 | 75 | 1019.1 |
| 20260901133134 | 58 | 69 | 0.0 | 1.0 | 0.00 | 0.00 | 0.00 | 74 | 1019.0 |
| 20260901132616 | 58 | 69 | 1.0 | 1.0 | 0.00 | 0.00 | 0.00 | 74 | 1019.0 |
| 20260901132116 | 57 | 91 | 1.0 | 1.0 | 0.00 | 0.00 | 0.00 | 75 | 1018.9 |
| 20260901131625 | 57 | 98 | 0.0 | 1.0 | 0.00 | 0.00 | 0.00 | 75 | 1018.9 |
| 20260901131126 | 57 | 98 | 0.0 | 1.0 | 0.00 | 0.00 | 0.00 | 75 | 1018.8 |
| 20260901130629 | 57 | 98 | 1.0 | 1.0 | 0.00 | 0.00 | 0.00 | 75 | 1018.7 |
| 20260901130116 | 57 | 113 | 0.0 | 1.0 | 0.00 | 0.00 | 0.00 | 74 | 1018.7 |
| 20260901125638 | 57 | 79 | 0.0 | 1.0 | 0.00 | 0.00 | 0.00 | 73 | 1018.8 |
| 20260901125125 | 57 | 79 | 0.0 | 1.0 | 0.00 | 0.00 | 0.00 | 73 | 1018.8 |
| 20260901124626 | 57 | 79 | 0.0 | 1.0 | 0.00 | 0.00 | 0.00 | 73 | 1018.8 |
| 20260901124136 | 58 | 74 | 0.0 | 1.0 | 0.00 | 0.00 | 0.00 | 72 | 1018.8 |
| 20260901123616 | 58 | 74 | 0.0 | 1.0 | 0.00 | 0.00 | 0.00 | 72 | 1018.9 |
| 20260901123118 | 58 | 74 | 0.0 | 1.0 | 0.00 | 0.00 | 0.00 | 71 | 1018.9 |
| 20260901122627 | 58 | 75 | 0.0 | 2.0 | 0.00 | 0.00 | 0.00 | 70 | 1018.9 |
| 20260901122128 | 59 | 74 | 0.0 | 2.0 | 0.00 | 0.00 | 0.00 | 69 | 1018.9 |
| 20260901121638 | 58 | 129 | 1.0 | 2.0 | 0.00 | 0.00 | 0.00 | 70 | 1018.9 |
| 20260901121119 | 58 | 70 | 0.0 | 1.0 | 0.00 | 0.00 | 0.00 | 70 | 1019.0 |
| 20260901120621 | 58 | 70 | 0.0 | 1.0 | 0.00 | 0.00 | 0.00 | 70 | 1018.9 |
| 20260901120127 | 58 | 70 | 0.0 | 1.0 | 0.00 | 0.00 | 0.00 | 71 | 1018.9 |
| 20260901115625 | 58 | 70 | 0.0 | 2.0 | 0.00 | 0.00 | 0.00 | 70 | 1018.8 |
| 20260901115133 | 58 | 70 | 1.0 | 1.0 | 0.00 | 0.00 | 0.00 | 70 | 1018.7 |
| 20260901114611 | 58 | 79 | 0.0 | 1.0 | 0.00 | 0.00 | 0.00 | 69 | 1018.6 |
| 20260901114134 | 57 | 90 | 1.0 | 1.0 | 0.00 | 0.00 | 0.00 | 71 | 1018.6 |
| 20260901113622 | 58 | 93 | 0.0 | 1.0 | 0.00 | 0.00 | 0.00 | 72 | 1018.6 |
| 20260901113148 | 58 | 93 | 0.0 | 1.0 | 0.00 | 0.00 | 0.00 | 71 | 1018.6 |
| 20260901112649 | 58 | 93 | 0.0 | 1.0 | 0.00 | 0.00 | 0.00 | 70 | 1018.6 |
| 20260901112136 | 57 | 95 | 0.0 | 1.0 | 0.00 | 0.00 | 0.00 | 71 | 1018.6 |
| 20260901111616 | 57 | 116 | 0.0 | 1.0 | 0.00 | 0.00 | 0.00 | 72 | 1018.7 |
| 20260901111125 | 57 | 96 | 1.0 | 1.0 | 0.00 | 0.00 | 0.00 | 74 | 1018.8 |
| 20260901110626 | 57 | 107 | 0.0 | 1.0 | 0.00 | 0.00 | 0.00 | 75 | 1018.8 |
| 20260901110127 | 58 | 107 | 0.0 | 1.0 | 0.00 | 0.00 | 0.00 | 75 | 1018.8 |
| 20260901105635 | 58 | 107 | 0.0 | 1.0 | 0.00 | 0.00 | 0.00 | 74 | 1018.9 |
| 20260901105137 | 58 | 107 | 0.0 | 2.0 | 0.00 | 0.00 | 0.00 | 74 | 1018.9 |
| 20260901104624 | 58 | 72 | 1.0 | 2.0 | 0.00 | 0.00 | 0.00 | 74 | 1018.8 |
| 20260901104125 | 58 | 74 | 0.0 | 1.0 | 0.00 | 0.00 | 0.00 | 73 | 1018.8 |
| 20260901103626 | 58 | 116 | 0.0 | 1.0 | 0.00 | 0.00 | 0.00 | 72 | 1018.9 |
| 20260901103135 | 59 | 73 | 0.0 | 2.0 | 0.00 | 0.00 | 0.00 | 71 | 1018.8 |
| 20260901102615 | 58 | 68 | 1.0 | 2.0 | 0.00 | 0.00 | 0.00 | 72 | 1018.8 |
| 20260901102117 | 58 | 62 | 0.0 | 1.0 | 0.00 | 0.00 | 0.00 | 73 | 1018.9 |
| 20260901101626 | 58 | 62 | 0.0 | 2.0 | 0.00 | 0.00 | 0.00 | 73 | 1018.9 |
| 20260901101127 | 58 | 61 | 1.0 | 2.0 | 0.00 | 0.00 | 0.00 | 72 | 1019.0 |
| 20260901100635 | 58 | 72 | 1.0 | 2.0 | 0.00 | 0.00 | 0.00 | 73 | 1019.0 |
| 20260901100116 | 58 | 79 | 0.0 | 1.0 | 0.00 | 0.00 | 0.00 | 75 | 1019.1 |
| 20260901095705 | 59 | 79 | 0.0 | 1.0 | 0.00 | 0.00 | 0.00 | 75 | 1019.1 |
| 20260901095131 | 59 | 79 | 0.0 | 1.0 | 0.00 | 0.00 | 0.00 | 75 | 1019.1 |
| 20260901094611 | 58 | 79 | 0.0 | 1.0 | 0.00 | 0.00 | 0.00 | 75 | 1019.1 |
| 20260901094112 | 58 | 79 | 0.0 | 1.0 | 0.00 | 0.00 | 0.00 | 75 | 1019.1 |
| 20260901093641 | 59 | 79 | 0.0 | 4.0 | 0.00 | 0.00 | 0.00 | 74 | 1019.0 |
| 20260901093122 | 59 | 79 | 1.0 | 4.0 | 0.00 | 0.00 | 0.00 | 75 | 1019.0 |
| 20260901092632 | 59 | 96 | 0.0 | 1.0 | 0.00 | 0.00 | 0.00 | 76 | 1019.1 |
| 20260901092133 | 59 | 99 | 0.0 | 1.0 | 0.00 | 0.00 | 0.00 | 76 | 1019.1 |
| 20260901091612 | 59 | 100 | 0.0 | 1.0 | 0.00 | 0.00 | 0.00 | 76 | 1019.1 |
| 20260901091121 | 59 | 166 | 0.0 | 1.0 | 0.00 | 0.00 | 0.00 | 75 | 1019.1 |
| 20260901090622 | 60 | 108 | 0.0 | 1.0 | 0.00 | 0.00 | 0.00 | 74 | 1018.9 |
| 20260901090130 | 60 | 108 | 1.0 | 1.0 | 0.00 | 0.00 | 0.00 | 74 | 1019.0 |
| 20260901085612 | 60 | 94 | 0.0 | 1.0 | 0.00 | 0.00 | 0.00 | 74 | 1019.1 |
| 20260901085134 | 60 | 35 | 0.0 | 1.0 | 0.00 | 0.00 | 0.00 | 74 | 1019.0 |
| 20260901084621 | 60 | 35 | 0.0 | 1.0 | 0.00 | 0.00 | 0.00 | 74 | 1019.2 |
| 20260901084124 | 60 | 35 | 0.0 | 1.0 | 0.00 | 0.00 | 0.00 | 74 | 1019.1 |
| 20260901083633 | 60 | 35 | 0.0 | 0.0 | 0.00 | 0.00 | 0.00 | 73 | 1019.2 |
| 20260901083115 | 61 | 35 | 0.0 | 1.0 | 0.00 | 0.00 | 0.00 | 74 | 1019.2 |
| 20260901082616 | 61 | 35 | 0.0 | 1.0 | 0.00 | 0.00 | 0.00 | 74 | 1019.3 |
| 20260901082119 | 61 | 35 | 0.0 | 1.0 | 0.00 | 0.00 | 0.00 | 73 | 1019.2 |
| 20260901081627 | 61 | 35 | 0.0 | 1.0 | 0.00 | 0.00 | 0.00 | 74 | 1019.2 |
| 20260901081129 | 61 | 38 | 0.0 | 1.0 | 0.00 | 0.00 | 0.00 | 74 | 1019.3 |
| 20260901080611 | 61 | 29 | 0.0 | 1.0 | 0.00 | 0.00 | 0.00 | 73 | 1019.3 |
| 20260901080119 | 61 | 26 | 0.0 | 1.0 | 0.00 | 0.00 | 0.00 | 73 | 1019.2 |
| 20260901075648 | 61 | 26 | 0.0 | 0.0 | 0.00 | 0.00 | 0.00 | 73 | 1019.4 |
| 20260901075128 | 62 | 316 | 0.0 | 0.0 | 0.00 | 0.00 | 0.00 | 72 | 1019.4 |
| 20260901074628 | 62 | 316 | 0.0 | 0.0 | 0.00 | 0.00 | 0.00 | 71 | 1019.5 |
| 20260901074138 | 62 | 316 | 0.0 | 1.0 | 0.00 | 0.00 | 0.00 | 71 | 1019.5 |
| 20260901073619 | 62 | 316 | 0.0 | 1.0 | 0.00 | 0.00 | 0.00 | 70 | 1019.4 |
| 20260901073129 | 62 | 333 | 0.0 | 1.0 | 0.00 | 0.00 | 0.00 | 70 | 1019.4 |
| 20260901072630 | 63 | 274 | 0.0 | 1.0 | 0.00 | 0.00 | 0.00 | 69 | 1019.4 |
| 20260901072112 | 63 | 274 | 1.0 | 1.0 | 0.00 | 0.00 | 0.00 | 69 | 1019.4 |
| 20260901071613 | 62 | 68 | 0.0 | 1.0 | 0.00 | 0.00 | 0.00 | 69 | 1019.3 |
| 20260901071142 | 62 | 68 | 0.0 | 1.0 | 0.00 | 0.00 | 0.00 | 69 | 1019.3 |
| 20260901070630 | 62 | 68 | 0.0 | 1.0 | 0.00 | 0.00 | 0.00 | 69 | 1019.3 |
| 20260901070131 | 62 | 70 | 0.0 | 1.0 | 0.00 | 0.00 | 0.00 | 69 | 1019.5 |
| 20260901065612 | 62 | 70 | 0.0 | 1.0 | 0.00 | 0.00 | 0.00 | 70 | 1019.5 |
| 20260901065119 | 62 | 64 | 0.0 | 3.0 | 0.00 | 0.00 | 0.00 | 70 | 1019.5 |
| 20260901064620 | 62 | 87 | 2.0 | 3.0 | 0.00 | 0.00 | 0.00 | 71 | 1019.6 |
| 20260901064123 | 62 | 318 | 0.0 | 1.0 | 0.00 | 0.00 | 0.00 | 72 | 1019.6 |
| 20260901063633 | 62 | 315 | 0.0 | 1.0 | 0.00 | 0.00 | 0.00 | 71 | 1019.6 |
| 20260901062619 | 62 | 184 | 0.0 | 3.0 | 0.00 | 0.00 | 0.00 | 71 | 1019.4 |
| 20260901062127 | 62 | 215 | 0.0 | 3.0 | 0.00 | 0.00 | 0.00 | 70 | 1019.3 |
| 20260901061645 | 62 | 288 | 0.0 | 1.0 | 0.00 | 0.00 | 0.00 | 70 | 1019.3 |
| 20260901061133 | 62 | 285 | 0.0 | 1.0 | 0.00 | 0.00 | 0.00 | 68 | 1019.1 |
| 20260901060616 | 62 | 285 | 0.0 | 1.0 | 0.00 | 0.00 | 0.00 | 68 | 1019.1 |
| 20260901060117 | 62 | 285 | 0.0 | 1.0 | 0.00 | 0.00 | 0.00 | 69 | 1019.2 |
| 20260901055626 | 62 | 321 | 0.0 | 2.0 | 0.00 | 0.00 | 0.00 | 71 | 1019.4 |
| 20260901055128 | 62 | 51 | 1.0 | 2.0 | 0.00 | 0.00 | 0.00 | 71 | 1019.4 |
| 20260901054638 | 62 | 350 | 0.0 | 2.0 | 0.00 | 0.00 | 0.00 | 71 | 1019.6 |
| 20260901054138 | 62 | 11 | 0.0 | 1.0 | 0.00 | 0.00 | 0.00 | 72 | 1019.7 |
| 20260901053620 | 62 | 297 | 0.0 | 2.0 | 0.00 | 0.00 | 0.00 | 72 | 1019.8 |
| 20260901053143 | 62 | 297 | 0.0 | 3.0 | 0.00 | 0.00 | 0.00 | 72 | 1019.9 |
| 20260901052652 | 62 | 296 | 2.0 | 3.0 | 0.00 | 0.00 | 0.00 | 71 | 1019.8 |
| 20260901052113 | 62 | 296 | 1.0 | 2.0 | 0.00 | 0.00 | 0.00 | 71 | 1019.8 |
| 20260901051615 | 62 | 89 | 0.0 | 1.0 | 0.00 | 0.00 | 0.00 | 71 | 1019.8 |
| 20260901051124 | 62 | 284 | 0.0 | 1.0 | 0.00 | 0.00 | 0.00 | 71 | 1019.9 |
| 20260901050611 | 62 | 284 | 0.0 | 2.0 | 0.00 | 0.00 | 0.00 | 71 | 1019.9 |
| 20260901050111 | 63 | 284 | 1.0 | 2.0 | 0.00 | 0.00 | 0.00 | 71 | 1020.1 |
| 20260901045636 | 63 | 276 | 0.0 | 1.0 | 0.00 | 0.00 | 0.00 | 71 | 1020.1 |
| 20260901045114 | 63 | 274 | 0.0 | 2.0 | 0.00 | 0.00 | 0.00 | 71 | 1020.1 |
| 20260901044622 | 62 | 278 | 1.0 | 2.0 | 0.00 | 0.00 | 0.00 | 71 | 1020.1 |
| 20260901043632 | 62 | 46 | 0.0 | 2.0 | 0.00 | 0.00 | 0.00 | 73 | 1020.1 |
| 20260901043120 | 62 | 25 | 0.0 | 4.0 | 0.00 | 0.00 | 0.00 | 73 | 1020.2 |
| 20260901042622 | 62 | 342 | 1.0 | 4.0 | 0.00 | 0.00 | 0.00 | 73 | 1020.3 |
| 20260901042132 | 61 | 67 | 0.0 | 1.0 | 0.00 | 0.00 | 0.00 | 74 | 1020.4 |
| 20260901041618 | 61 | 91 | 0.0 | 1.0 | 0.00 | 0.00 | 0.00 | 74 | 1020.5 |
| 20260901041120 | 61 | 91 | 0.0 | 1.0 | 0.00 | 0.00 | 0.00 | 74 | 1020.4 |
| 20260901040620 | 62 | 91 | 0.0 | 1.0 | 0.00 | 0.00 | 0.00 | 73 | 1020.4 |
| 20260901040128 | 62 | 91 | 0.0 | 1.0 | 0.00 | 0.00 | 0.00 | 73 | 1020.3 |
| 20260901035629 | 62 | 91 | 0.0 | 1.0 | 0.00 | 0.00 | 0.00 | 72 | 1020.3 |
| 20260901035137 | 62 | 91 | 0.0 | 1.0 | 0.00 | 0.00 | 0.00 | 72 | 1020.3 |
| 20260901034619 | 62 | 95 | 0.0 | 1.0 | 0.00 | 0.00 | 0.00 | 72 | 1020.3 |
| 20260901034127 | 62 | 58 | 0.0 | 2.0 | 0.00 | 0.00 | 0.00 | 73 | 1020.3 |
| 20260901033636 | 62 | 136 | 1.0 | 2.0 | 0.00 | 0.00 | 0.00 | 73 | 1020.4 |
| 20260901033118 | 62 | 105 | 0.0 | 3.0 | 0.00 | 0.00 | 0.00 | 73 | 1020.3 |
| 20260901032639 | 62 | 100 | 0.0 | 3.0 | 0.00 | 0.00 | 0.00 | 74 | 1020.3 |
| 20260901032127 | 62 | 105 | 1.0 | 3.0 | 0.00 | 0.00 | 0.00 | 74 | 1020.2 |
| 20260901031630 | 62 | 148 | 0.0 | 2.0 | 0.00 | 0.00 | 0.00 | 74 | 1020.3 |
| 20260901031137 | 62 | 115 | 1.0 | 2.0 | 0.00 | 0.00 | 0.00 | 73 | 1019.9 |
| 20260901030617 | 62 | 179 | 0.0 | 1.0 | 0.00 | 0.00 | 0.00 | 73 | 1019.8 |
| 20260901030120 | 62 | 325 | 0.0 | 4.0 | 0.00 | 0.00 | 0.00 | 72 | 1019.6 |
| 20260901025628 | 63 | 309 | 0.0 | 4.0 | 0.00 | 0.00 | 0.00 | 71 | 1019.5 |
| 20260901025130 | 63 | 247 | 0.0 | 4.0 | 0.00 | 0.00 | 0.00 | 70 | 1019.4 |
| 20260901024630 | 63 | 288 | 3.0 | 4.0 | 0.00 | 0.00 | 0.00 | 70 | 1019.2 |
| 20260901024111 | 63 | 316 | 0.0 | 2.0 | 0.00 | 0.00 | 0.00 | 70 | 1019.4 |
| 20260901023619 | 63 | 330 | 0.0 | 2.0 | 0.00 | 0.00 | 0.00 | 70 | 1019.4 |
| 20260901023147 | 63 | 345 | 0.0 | 1.0 | 0.00 | 0.00 | 0.00 | 70 | 1019.4 |
| 20260901022627 | 63 | 89 | 0.0 | 1.0 | 0.00 | 0.00 | 0.00 | 71 | 1019.5 |
| 20260901022129 | 63 | 226 | 0.0 | 1.0 | 0.00 | 0.00 | 0.00 | 69 | 1019.6 |
| 20260901021637 | 63 | 226 | 0.0 | 1.0 | 0.00 | 0.00 | 0.00 | 69 | 1019.9 |
| 20260901021116 | 63 | 226 | 0.0 | 2.0 | 0.00 | 0.00 | 0.00 | 69 | 1019.9 |
| 20260901020618 | 63 | 158 | 0.0 | 1.0 | 0.00 | 0.00 | 0.00 | 68 | 1020.1 |
| 20260901020126 | 63 | 203 | 0.0 | 1.0 | 0.00 | 0.00 | 0.00 | 68 | 1020.1 |
| 20260901015635 | 63 | 120 | 0.0 | 2.0 | 0.00 | 0.00 | 0.00 | 68 | 1020.3 |
| 20260901015115 | 64 | 224 | 1.0 | 4.0 | 0.00 | 0.00 | 0.00 | 67 | 1020.4 |
| 20260901014623 | 64 | 244 | 0.0 | 3.0 | 0.00 | 0.00 | 0.00 | 67 | 1020.4 |
| 20260901014124 | 64 | 279 | 1.0 | 3.0 | 0.00 | 0.00 | 0.00 | 66 | 1020.4 |
| 20260901013653 | 64 | 256 | 1.0 | 3.0 | 0.00 | 0.00 | 0.00 | 65 | 1020.3 |
| 20260901013133 | 64 | 94 | 0.0 | 7.0 | 0.00 | 0.00 | 0.00 | 65 | 1020.4 |
| 20260901012612 | 65 | 126 | 3.0 | 6.0 | 0.00 | 0.00 | 0.00 | 64 | 1020.4 |
| 20260901012137 | 65 | 228 | 2.0 | 6.0 | 0.00 | 0.00 | 0.00 | 64 | 1020.5 |
| 20260901011625 | 65 | 117 | 3.0 | 6.0 | 0.00 | 0.00 | 0.00 | 63 | 1020.6 |
| 20260901011111 | 65 | 165 | 0.0 | 8.0 | 0.00 | 0.00 | 0.00 | 64 | 1020.7 |
| 20260901010613 | 65 | 240 | 2.0 | 9.0 | 0.00 | 0.00 | 0.00 | 64 | 1020.8 |
| 20260901010119 | 65 | 194 | 1.0 | 8.0 | 0.00 | 0.00 | 0.00 | 65 | 1020.9 |
| 20260901005621 | 65 | 84 | 2.0 | 11.0 | 0.00 | 0.00 | 0.00 | 65 | 1021.0 |
| 20260901005146 | 65 | 214 | 4.0 | 11.0 | 0.00 | 0.00 | 0.00 | 65 | 1021.1 |
| 20260901004647 | 65 | 124 | 3.0 | 6.0 | 0.00 | 0.00 | 0.00 | 65 | 1021.2 |
| 20260901004134 | 65 | 96 | 2.0 | 6.0 | 0.00 | 0.00 | 0.00 | 65 | 1021.2 |
| 20260901003635 | 65 | 128 | 1.0 | 5.0 | 0.00 | 0.00 | 0.00 | 67 | 1021.2 |
| 20260901003122 | 65 | 120 | 3.0 | 8.0 | 0.00 | 0.00 | 0.00 | 67 | 1021.1 |
| 20260901002624 | 65 | 179 | 3.0 | 8.0 | 0.00 | 0.00 | 0.00 | 67 | 1021.0 |
| 20260901002126 | 65 | 139 | 4.0 | 8.0 | 0.00 | 0.00 | 0.00 | 67 | 1020.9 |
| 20260901001635 | 65 | 156 | 3.0 | 8.0 | 0.00 | 0.00 | 0.00 | 66 | 1020.8 |
| 20260901001116 | 66 | 188 | 3.0 | 11.0 | 0.00 | 0.00 | 0.00 | 65 | 1020.7 |
| 20260901000624 | 66 | 197 | 3.0 | 14.0 | 0.00 | 0.00 | 0.00 | 64 | 1020.6 |
| 20260901000124 | 66 | 125 | 4.0 | 14.0 | 0.00 | 0.00 | 0.00 | 63 | 1020.6 |
| 20260831235633 | 66 | 174 | 8.0 | 13.0 | 0.00 | 0.00 | 0.00 | 62 | 1020.7 |
| 20260831235114 | 66 | 153 | 6.0 | 11.0 | 0.00 | 0.00 | 0.00 | 65 | 1020.6 |
| 20260831234615 | 66 | 210 | 3.0 | 10.0 | 0.00 | 0.00 | 0.00 | 66 | 1020.6 |
| 20260831234117 | 67 | 103 | 5.0 | 18.0 | 0.00 | 0.00 | 0.00 | 63 | 1020.6 |
| 20260831233645 | 69 | 130 | 9.0 | 18.0 | 0.00 | 0.00 | 0.00 | 60 | 1020.7 |
| 20260831233133 | 70 | 155 | 6.0 | 13.0 | 0.00 | 0.00 | 0.00 | 54 | 1020.5 |
| 20260831232615 | 71 | 134 | 3.0 | 13.0 | 0.00 | 0.00 | 0.00 | 51 | 1019.9 |
| 20260831232114 | 72 | 236 | 8.0 | 15.0 | 0.00 | 0.00 | 0.00 | 47 | 1019.3 |
| 20260831231643 | 73 | 149 | 1.0 | 11.0 | 0.00 | 0.00 | 0.00 | 44 | 1018.8 |
| 20260831231123 | 74 | 226 | 5.0 | 11.0 | 0.00 | 0.00 | 0.00 | 42 | 1018.6 |
| 20260831230625 | 76 | 353 | 2.0 | 9.0 | 0.00 | 0.00 | 0.00 | 42 | 1018.2 |
| 20260831230112 | 77 | 132 | 4.0 | 19.0 | 0.00 | 0.00 | 0.00 | 45 | 1017.7 |
| 20260831225614 | 77 | 301 | 9.0 | 19.0 | 0.00 | 0.00 | 0.00 | 46 | 1017.5 |
| 20260831225116 | 77 | 290 | 4.0 | 11.0 | 0.00 | 0.00 | 0.00 | 46 | 1017.3 |
| 20260831224645 | 78 | 219 | 3.0 | 14.0 | 0.00 | 0.00 | 0.00 | 44 | 1016.8 |
| 20260831224133 | 79 | 272 | 7.0 | 14.0 | 0.00 | 0.00 | 0.00 | 42 | 1016.7 |
| 20260831223613 | 81 | 278 | 2.0 | 7.0 | 0.00 | 0.00 | 0.00 | 34 | 1016.3 |
| 20260831223114 | 82 | 289 | 1.0 | 3.0 | 0.00 | 0.00 | 0.00 | 32 | 1016.0 |
| 20260831222616 | 82 | 227 | 0.0 | 3.0 | 0.00 | 0.00 | 0.00 | 32 | 1015.9 |
| 20260831222124 | 83 | 112 | 0.0 | 7.0 | 0.00 | 0.00 | 0.00 | 31 | 1015.8 |
| 20260831221625 | 83 | 195 | 2.0 | 7.0 | 0.00 | 0.00 | 0.00 | 29 | 1015.7 |
| 20260831221114 | 83 | 193 | 1.0 | 7.0 | 0.00 | 0.01 | 0.00 | 30 | 1015.6 |
| 20260831220635 | 83 | 193 | 4.0 | 9.0 | 0.00 | 0.01 | 0.00 | 28 | 1015.6 |
| 20260831220123 | 84 | 143 | 4.0 | 12.0 | 0.00 | 0.01 | 0.00 | 29 | 1015.5 |
| 20260831215653 | 84 | 169 | 4.0 | 12.0 | 0.00 | 0.01 | 0.00 | 31 | 1015.6 |
| 20260831215113 | 84 | 140 | 3.0 | 8.0 | 0.00 | 0.01 | 0.00 | 29 | 1015.7 |
| 20260831214614 | 84 | 88 | 4.0 | 8.0 | 0.00 | 0.01 | 0.00 | 28 | 1015.8 |
| 20260831214142 | 84 | 232 | 3.0 | 8.0 | 0.00 | 0.01 | 0.00 | 29 | 1016.0 |
| 20260831213624 | 85 | 170 | 4.0 | 8.0 | 0.00 | 0.01 | 0.00 | 28 | 1015.9 |
| 20260831213133 | 85 | 168 | 3.0 | 6.0 | 0.00 | 0.01 | 0.00 | 29 | 1016.0 |
| 20260831212616 | 85 | 165 | 4.0 | 9.0 | 0.00 | 0.01 | 0.00 | 29 | 1016.1 |
| 20260831212117 | 85 | 146 | 4.0 | 9.0 | 0.00 | 0.01 | 0.00 | 28 | 1016.2 |
| 20260831211626 | 85 | 139 | 2.0 | 9.0 | 0.00 | 0.01 | 0.00 | 28 | 1016.2 |
| 20260831211128 | 85 | 142 | 3.0 | 7.0 | 0.00 | 0.01 | 0.00 | 28 | 1016.2 |
| 20260831210636 | 85 | 239 | 2.0 | 11.0 | 0.00 | 0.01 | 0.00 | 27 | 1016.3 |
| 20260831210116 | 84 | 206 | 4.0 | 11.0 | 0.00 | 0.01 | 0.00 | 28 | 1016.3 |
| 20260831205618 | 84 | 145 | 3.0 | 9.0 | 0.00 | 0.01 | 0.00 | 28 | 1016.4 |
| 20260831205127 | 85 | 151 | 4.0 | 8.0 | 0.00 | 0.01 | 0.00 | 27 | 1016.5 |
| 20260831204655 | 85 | 120 | 5.0 | 8.0 | 0.00 | 0.01 | 0.00 | 27 | 1016.7 |
| 20260831204114 | 85 | 157 | 3.0 | 7.0 | 0.00 | 0.01 | 0.00 | 27 | 1016.6 |
| 20260831203615 | 85 | 167 | 2.0 | 6.0 | 0.00 | 0.01 | 0.00 | 28 | 1016.7 |
| 20260831203119 | 85 | 238 | 2.0 | 5.0 | 0.00 | 0.01 | 0.00 | 30 | 1016.7 |
| 20260831202623 | 85 | 127 | 2.0 | 5.0 | 0.00 | 0.01 | 0.00 | 30 | 1016.7 |
| 20260831202152 | 86 | 162 | 1.0 | 5.0 | 0.00 | 0.01 | 0.00 | 31 | 1016.9 |
| 20260831201611 | 85 | 204 | 1.0 | 6.0 | 0.00 | 0.01 | 0.00 | 29 | 1016.9 |
| 20260831201140 | 86 | 210 | 2.0 | 5.0 | 0.00 | 0.01 | 0.00 | 29 | 1017.0 |
| 20260831200621 | 85 | 293 | 1.0 | 4.0 | 0.00 | 0.03 | 0.00 | 33 | 1017.0 |
| 20260831200129 | 85 | 180 | 2.0 | 4.0 | 0.00 | 0.03 | 0.00 | 34 | 1017.1 |
| 20260831195630 | 85 | 54 | 1.0 | 3.0 | 0.00 | 0.03 | 0.00 | 33 | 1017.3 |
| 20260831195111 | 84 | 156 | 0.0 | 4.0 | 0.00 | 0.03 | 0.00 | 35 | 1017.3 |
| 20260831194620 | 84 | 275 | 1.0 | 4.0 | 0.00 | 0.03 | 0.00 | 35 | 1017.4 |
| 20260831194122 | 85 | 275 | 0.0 | 2.0 | 0.00 | 0.03 | 0.00 | 36 | 1017.5 |
| 20260831193651 | 83 | 124 | 1.0 | 7.0 | 0.00 | 0.03 | 0.00 | 36 | 1017.7 |
| 20260831193110 | 83 | 13 | 2.0 | 7.0 | 0.00 | 0.03 | 0.00 | 35 | 1017.9 |
| 20260831192612 | 83 | 11 | 1.0 | 4.0 | 0.00 | 0.03 | 0.00 | 38 | 1018.0 |
| 20260831192120 | 83 | 219 | 1.0 | 5.0 | 0.00 | 0.03 | 0.00 | 37 | 1017.9 |
| 20260831191622 | 82 | 295 | 2.0 | 5.0 | 0.00 | 0.03 | 0.00 | 37 | 1018.0 |
| 20260831191130 | 82 | 257 | 2.0 | 4.0 | 0.00 | 0.03 | 0.00 | 37 | 1018.1 |
| 20260831190633 | 82 | 307 | 1.0 | 3.0 | 0.00 | 0.03 | 0.00 | 38 | 1018.1 |
| 20260831190114 | 82 | 288 | 1.0 | 3.0 | 0.00 | 0.03 | 0.00 | 37 | 1018.2 |
| 20260831185620 | 81 | 208 | 1.0 | 2.0 | 0.00 | 0.03 | 0.00 | 38 | 1018.2 |
| 20260831185128 | 81 | 261 | 0.0 | 3.0 | 0.00 | 0.03 | 0.00 | 37 | 1018.2 |
| 20260831184629 | 80 | 251 | 1.0 | 3.0 | 0.00 | 0.03 | 0.00 | 38 | 1018.3 |
| 20260831184130 | 80 | 78 | 0.0 | 2.0 | 0.00 | 0.03 | 0.00 | 39 | 1018.4 |
| 20260831183611 | 79 | 276 | 1.0 | 2.0 | 0.00 | 0.03 | 0.00 | 39 | 1018.5 |
| 20260831183119 | 79 | 290 | 0.0 | 3.0 | 0.00 | 0.03 | 0.00 | 38 | 1018.6 |
| 20260831182647 | 78 | 270 | 1.0 | 4.0 | 0.00 | 0.03 | 0.00 | 41 | 1018.8 |
| 20260831182128 | 79 | 281 | 2.0 | 4.0 | 0.00 | 0.03 | 0.00 | 40 | 1018.9 |
| 20260831181654 | 79 | 273 | 0.0 | 2.0 | 0.00 | 0.03 | 0.00 | 39 | 1018.9 |
| 20260831181115 | 79 | 208 | 1.0 | 2.0 | 0.00 | 0.03 | 0.00 | 41 | 1019.0 |
| 20260831180616 | 79 | 190 | 0.0 | 2.0 | 0.00 | 0.03 | 0.00 | 41 | 1019.0 |
| 20260831180125 | 79 | 190 | 0.0 | 2.0 | 0.00 | 0.03 | 0.00 | 40 | 1019.0 |
| 20260831175627 | 78 | 203 | 0.0 | 2.0 | 0.00 | 0.03 | 0.00 | 42 | 1019.1 |
| 20260831175128 | 78 | 278 | 1.0 | 5.0 | 0.00 | 0.03 | 0.00 | 40 | 1019.1 |
| 20260831174616 | 78 | 281 | 1.0 | 3.0 | 0.00 | 0.03 | 0.00 | 42 | 1019.2 |
| 20260831174118 | 78 | 257 | 1.0 | 2.0 | 0.00 | 0.03 | 0.00 | 42 | 1019.2 |
| 20260831173627 | 77 | 134 | 1.0 | 3.0 | 0.00 | 0.03 | 0.00 | 41 | 1019.1 |
| 20260831173126 | 77 | 120 | 0.0 | 3.0 | 0.00 | 0.03 | 0.00 | 43 | 1019.1 |
| 20260831172629 | 76 | 231 | 1.0 | 2.0 | 0.00 | 0.03 | 0.00 | 44 | 1019.3 |
| 20260831172136 | 76 | 140 | 1.0 | 2.0 | 0.00 | 0.03 | 0.00 | 44 | 1019.3 |
| 20260831171618 | 76 | 98 | 0.0 | 3.0 | 0.00 | 0.03 | 0.00 | 42 | 1019.3 |
| 20260831171119 | 76 | 125 | 2.0 | 3.0 | 0.00 | 0.03 | 0.00 | 43 | 1019.4 |
| 20260831170627 | 75 | 255 | 0.0 | 2.0 | 0.00 | 0.03 | 0.00 | 45 | 1019.3 |
| 20260831170157 | 75 | 253 | 0.0 | 3.0 | 0.00 | 0.03 | 0.00 | 44 | 1019.3 |
| 20260831165617 | 75 | 274 | 1.0 | 3.0 | 0.00 | 0.03 | 0.00 | 43 | 1019.2 |
| 20260831165117 | 76 | 264 | 0.0 | 1.0 | 0.00 | 0.03 | 0.00 | 43 | 1019.2 |
| 20260831164647 | 76 | 304 | 0.0 | 2.0 | 0.00 | 0.03 | 0.00 | 42 | 1019.1 |
| 20260831164128 | 76 | 315 | 1.0 | 2.0 | 0.00 | 0.03 | 0.00 | 40 | 1019.1 |
| 20260831163637 | 76 | 229 | 1.0 | 3.0 | 0.00 | 0.03 | 0.00 | 43 | 1019.2 |
| 20260831163117 | 76 | 283 | 1.0 | 2.0 | 0.00 | 0.03 | 0.00 | 42 | 1019.1 |
| 20260831162623 | 75 | 217 | 0.0 | 2.0 | 0.00 | 0.03 | 0.00 | 43 | 1019.1 |
| 20260831162125 | 74 | 239 | 1.0 | 2.0 | 0.00 | 0.03 | 0.00 | 44 | 1019.1 |
| 20260831161614 | 73 | 326 | 0.0 | 2.0 | 0.00 | 0.03 | 0.00 | 42 | 1019.1 |